Sturgis, MI

6:52 PM EST on February 22, 2017 (GMT -0500)
Kirsch Municipal

Weather History for KIRS - January, 2013

Change the Weather History Date:

Tuesday, January 22, 2013

  Actual Average (KHAI) Record (KHAI)
Temperature  
Mean Temperature 4 °F -  
Max Temperature 8 °F 33 °F 55 °F (1964)
Min Temperature 0 °F 18 °F -16 °F (1970)
Degree Days  
Heating Degree Days 61    
Moisture  
Dew Point -2 °F    
Average Humidity 75    
Maximum Humidity 85    
Minimum Humidity 56    
Precipitation  
Precipitation 0.00 in - - ()
Sea Level Pressure  
Sea Level Pressure 30.22 in    
Wind  
Wind Speed 9 mph (West)    
Max Wind Speed 15 mph    
Max Gust Speed 23 mph    
Visibility 9 miles    
Events Snow    
Averages and records for this station are not official NWS values.
T = Trace of Precipitation, MM = Missing Value Source: NWS Daily Summary

Daily Weather History Graph

Daily Weather History Graph

Search for Another Location

Airport or City:

Trip Planner

Search our weather history database for the weather conditions in past years. The results will help you decide how hot, cold, wet, or windy it might be!

Date:

Astronomy

Jan. 22, 2013 Rise Set
Actual Time 8:02 AM EST 5:44 PM EST
Civil Twilight 7:32 AM EST 6:15 PM EST
Nautical Twilight 6:58 AM EST 6:48 PM EST
Astronomical Twilight 6:25 AM EST 7:21 PM EST
Moon 2:06 PM EST 4:24 AM EST
Length of Visible Light 10h 42m
Length of Day
9h 42m
Waxing Gibbous, 82% of the Moon is Illuminated
Jan 22
Waxing Gibbous
Jan 26
Full
Feb 3
Last Quarter
Feb 10
New
Feb 17
First Quarter

Hourly Weather History & Observations

Time (EST) Temp. Windchill Dew Point Humidity Pressure Visibility Wind Dir Wind Speed Gust Speed Precip Events Conditions
12:14 AM 6.8 °F -6.9 °F 3.2 °F 85% 30.12 in 4.0 mi WNW 9.2 mph 16.1 mph N/A Snow Light Snow
12:35 AM 6.8 °F -9.3 °F 1.4 °F 79% 30.12 in 10.0 mi WNW 12.7 mph 19.6 mph N/A   Overcast
12:55 AM 6.8 °F -7.8 °F 1.4 °F 79% 30.12 in 10.0 mi WNW 10.4 mph 16.1 mph N/A   Overcast
1:14 AM 6.8 °F -4.8 °F 1.4 °F 79% 30.12 in 10.0 mi WNW 6.9 mph - N/A   Overcast
1:35 AM 6.8 °F -5.9 °F 1.4 °F 79% 30.12 in 10.0 mi WNW 8.1 mph - N/A   Scattered Clouds
1:55 AM 5.0 °F -10.0 °F -0.4 °F 78% 30.13 in 10.0 mi West 10.4 mph - N/A   Clear
2:14 AM 5.0 °F -6.9 °F -0.4 °F 78% 30.13 in 10.0 mi West 6.9 mph - N/A   Clear
2:35 AM 3.2 °F -9.1 °F -0.4 °F 85% 30.14 in 10.0 mi West 6.9 mph - N/A   Clear
2:55 AM 3.2 °F -9.1 °F -0.4 °F 85% 30.14 in 10.0 mi West 6.9 mph - N/A   Clear
3:14 AM 3.2 °F -10.3 °F -0.4 °F 85% 30.15 in 10.0 mi West 8.1 mph - N/A   Clear
3:35 AM 3.2 °F -10.3 °F -0.4 °F 85% 30.15 in 10.0 mi West 8.1 mph - N/A   Clear
3:55 AM 3.2 °F -9.1 °F -0.4 °F 85% 30.16 in 10.0 mi West 6.9 mph - N/A   Scattered Clouds
4:15 AM 3.2 °F -7.8 °F -0.4 °F 85% 30.16 in 10.0 mi West 5.8 mph - N/A   Scattered Clouds
4:35 AM 3.2 °F -7.8 °F -0.4 °F 85% 30.17 in 10.0 mi West 5.8 mph - N/A   Mostly Cloudy
4:54 AM 3.2 °F -9.1 °F -0.4 °F 85% 30.17 in 10.0 mi West 6.9 mph - N/A   Mostly Cloudy
5:15 AM 3.2 °F -6.2 °F -2.2 °F 78% 30.17 in 10.0 mi WNW 4.6 mph - N/A   Scattered Clouds
5:35 AM 1.4 °F -9.9 °F -2.2 °F 85% 30.18 in 10.0 mi West 5.8 mph - N/A   Mostly Cloudy
5:54 AM 1.4 °F -11.3 °F -2.2 °F 85% 30.18 in 10.0 mi WNW 6.9 mph - N/A   Mostly Cloudy
6:15 AM 1.4 °F -11.3 °F -2.2 °F 85% 30.19 in 10.0 mi West 6.9 mph - N/A   Scattered Clouds
6:35 AM 3.2 °F -10.3 °F -2.2 °F 78% 30.19 in 10.0 mi West 8.1 mph - N/A   Scattered Clouds
6:54 AM 3.2 °F -10.3 °F -2.2 °F 78% 30.20 in 10.0 mi West 8.1 mph - N/A   Mostly Cloudy
7:15 AM 3.2 °F -11.3 °F -2.2 °F 78% 30.21 in 10.0 mi West 9.2 mph - N/A   Mostly Cloudy
7:35 AM 1.4 °F -11.3 °F -2.2 °F 85% 30.21 in 10.0 mi WSW 6.9 mph - N/A   Overcast
7:54 AM -0.4 °F -13.4 °F -4.0 °F 85% 30.22 in 10.0 mi SW 6.9 mph - N/A   Overcast
8:15 AM -0.4 °F -13.4 °F -4.0 °F 85% 30.23 in 7.0 mi WSW 6.9 mph - N/A Snow Light Snow
8:35 AM 1.4 °F -9.9 °F -2.2 °F 85% 30.23 in 5.0 mi West 5.8 mph - N/A Snow Light Snow
8:54 AM 1.4 °F -9.9 °F -2.2 °F 85% 30.23 in 10.0 mi WSW 5.8 mph - N/A Snow Light Snow
9:15 AM 1.4 °F -13.5 °F -2.2 °F 85% 30.24 in 10.0 mi WSW 9.2 mph - N/A   Overcast
9:35 AM 3.2 °F -11.3 °F -2.2 °F 78% 30.25 in 7.0 mi WSW 9.2 mph - N/A Snow Light Snow
9:55 AM 3.2 °F -12.2 °F -0.4 °F 85% 30.25 in 10.0 mi WSW 10.4 mph - N/A   Scattered Clouds
10:15 AM 3.2 °F -11.3 °F -0.4 °F 85% 30.26 in 7.0 mi WSW 9.2 mph - N/A   Mostly Cloudy
10:34 AM 6.8 °F -6.9 °F -0.4 °F 72% 30.26 in 10.0 mi WSW 9.2 mph - N/A   Scattered Clouds
10:55 AM 6.8 °F -5.9 °F -0.4 °F 72% 30.26 in 10.0 mi West 8.1 mph 17.3 mph N/A   Clear
11:15 AM 6.8 °F -9.3 °F -0.4 °F 72% 30.26 in 10.0 mi WSW 12.7 mph - N/A   Mostly Cloudy
11:35 AM 6.8 °F -8.6 °F 1.4 °F 79% 30.26 in 7.0 mi West 11.5 mph 17.3 mph N/A   Overcast
11:55 AM 6.8 °F -6.9 °F 1.4 °F 79% 30.26 in 5.0 mi WSW 9.2 mph - N/A   Haze
12:15 PM 8.6 °F -7.0 °F 1.4 °F 73% 30.25 in 5.0 mi WSW 12.7 mph 16.1 mph N/A   Haze
12:35 PM 8.6 °F -7.7 °F 1.4 °F 73% 30.25 in 2.5 mi WSW 13.8 mph 17.3 mph N/A   Haze
12:55 PM 8.6 °F -4.7 °F 1.4 °F 73% 30.24 in 7.0 mi West 9.2 mph 18.4 mph N/A   Overcast
1:15 PM 8.6 °F -6.3 °F 1.4 °F 73% 30.24 in 7.0 mi West 11.5 mph - N/A   Overcast
1:35 PM 8.6 °F -7.7 °F 1.4 °F 73% 30.23 in 10.0 mi WSW 13.8 mph - N/A   Overcast
1:55 PM 8.6 °F -7.7 °F 1.4 °F 73% 30.24 in 7.0 mi WSW 13.8 mph - N/A   Overcast
2:14 PM 8.6 °F -5.5 °F 1.4 °F 73% 30.24 in 5.0 mi West 10.4 mph 16.1 mph N/A   Haze
2:35 PM 8.6 °F -8.3 °F 1.4 °F 73% 30.24 in 4.0 mi West 15.0 mph 18.4 mph N/A   Haze
2:55 PM 8.6 °F -6.3 °F -0.4 °F 67% 30.24 in 7.0 mi West 11.5 mph 19.6 mph N/A   Overcast
3:14 PM 8.6 °F -8.3 °F 1.4 °F 73% 30.25 in 7.0 mi West 15.0 mph 23.0 mph N/A   Overcast
3:35 PM 6.8 °F -7.8 °F 1.4 °F 79% 30.24 in 3.0 mi WSW 10.4 mph - N/A Snow Light Snow
3:55 PM 8.6 °F -6.3 °F 3.2 °F 79% 30.24 in 1.2 mi West 11.5 mph 16.1 mph N/A Snow Light Snow
4:15 PM 8.6 °F -7.0 °F 1.4 °F 73% 30.24 in 3.0 mi West 12.7 mph 17.3 mph N/A Snow Light Snow
4:35 PM 8.6 °F -7.7 °F -0.4 °F 67% 30.25 in 10.0 mi West 13.8 mph - N/A   Mostly Cloudy
4:55 PM 6.8 °F -8.6 °F -4.0 °F 61% 30.25 in 10.0 mi West 11.5 mph - N/A   Scattered Clouds
5:15 PM 6.8 °F -10.0 °F -2.2 °F 67% 30.26 in 10.0 mi West 13.8 mph - N/A   Clear
5:35 PM 6.8 °F -6.9 °F -5.8 °F 56% 30.26 in 10.0 mi West 9.2 mph - N/A   Clear
5:54 PM 6.8 °F -4.8 °F -5.8 °F 56% 30.26 in 10.0 mi West 6.9 mph - N/A   Clear
6:15 PM 5.0 °F -6.9 °F -5.8 °F 61% 30.26 in 10.0 mi WSW 6.9 mph - N/A   Clear
6:35 PM 6.8 °F -4.8 °F -5.8 °F 56% 30.25 in 10.0 mi WSW 6.9 mph - N/A   Clear
6:54 PM 3.2 °F -7.8 °F -5.8 °F 66% 30.25 in 10.0 mi WSW 5.8 mph - N/A   Clear
7:15 PM 3.2 °F -7.8 °F -5.8 °F 66% 30.25 in 10.0 mi WSW 5.8 mph - N/A   Clear
7:35 PM 3.2 °F -7.8 °F -5.8 °F 66% 30.25 in 10.0 mi WSW 5.8 mph - N/A   Scattered Clouds
7:55 PM 3.2 °F -9.1 °F -5.8 °F 66% 30.24 in 10.0 mi WSW 6.9 mph - N/A   Scattered Clouds
8:15 PM 3.2 °F -7.8 °F -5.8 °F 66% 30.24 in 10.0 mi WSW 5.8 mph - N/A   Scattered Clouds
8:35 PM 3.2 °F -6.2 °F -5.8 °F 66% 30.24 in 10.0 mi WSW 4.6 mph - N/A   Mostly Cloudy
8:55 PM 3.2 °F -7.8 °F -5.8 °F 66% 30.24 in 10.0 mi WSW 5.8 mph - N/A   Overcast
9:15 PM 3.2 °F -9.1 °F -5.8 °F 66% 30.24 in 10.0 mi WSW 6.9 mph - N/A   Overcast
9:35 PM 3.2 °F -6.2 °F -5.8 °F 66% 30.24 in 10.0 mi WSW 4.6 mph - N/A   Overcast
9:55 PM 5.0 °F -6.9 °F -5.8 °F 61% 30.24 in 10.0 mi WSW 6.9 mph - N/A   Overcast
10:15 PM 5.0 °F -6.9 °F -4.0 °F 66% 30.24 in 10.0 mi WSW 6.9 mph - N/A   Overcast
10:34 PM 5.0 °F -6.9 °F -4.0 °F 66% 30.24 in 10.0 mi WSW 6.9 mph - N/A   Overcast
10:55 PM 5.0 °F -6.9 °F -2.2 °F 72% 30.24 in 7.0 mi WSW 6.9 mph - N/A   Overcast
11:15 PM 5.0 °F -6.9 °F -2.2 °F 72% 30.25 in 10.0 mi WSW 6.9 mph - N/A   Overcast
11:34 PM 5.0 °F -5.6 °F -0.4 °F 78% 30.25 in 10.0 mi WSW 5.8 mph - N/A Snow Light Snow
11:55 PM 6.8 °F -5.9 °F -0.4 °F 72% 30.25 in 7.0 mi WSW 8.1 mph - N/A Snow Light Snow